Weather History for Chignik, AK

Change the Weather History Date:

Thursday, November 28, 2013

  Actual Average Record
Temperature  
Mean Temperature 27 °F -  
Max Temperature 33 °F 35 °F 50 °F (2007)
Min Temperature 21 °F 28 °F 21 °F (1999)
Degree Days  
Heating Degree Days 38    
Moisture  
Dew Point 14 °F    
Average Humidity 62    
Maximum Humidity 80    
Minimum Humidity 43    
Precipitation  
Precipitation 0.00 in - - ()
Sea Level Pressure  
Sea Level Pressure 30.07 in    
Wind  
Wind Speed 12 mph (West)    
Max Wind Speed 18 mph    
Max Gust Speed 24 mph    
Visibility 10 miles    
Events      
Averages and records for this station are not official NWS values.
T = Trace of Precipitation, MM = Missing Value Source: NWS Daily Summary

Daily Weather History Graph

Daily Weather History Graph

Search for Another Location

Airport:

Trip Planner

Search our weather history database for the weather conditions in past years. The results will help you decide how hot, cold, wet, or windy it might be!

Date:

Astronomy

Nov. 28, 2013 Rise Set
Actual Time 9:37 AM AKST 5:04 PM AKST
Civil Twilight 8:52 AM AKST 5:50 PM AKST
Nautical Twilight 8:04 AM AKST 6:38 PM AKST
Astronomical Twilight 7:19 AM AKST 7:23 PM AKST
Moon 4:03 AM AKST (11/28) 3:04 PM AKST (11/28)
Length of Visible Light 8h 58m
Length of Day
7h 26m
Waning Crescent, 21% of the Moon is Illuminated
Nov 28
Waning Crescent
Dec 2
New
Dec 9
First Quarter
Dec 17
Full
Dec 25
Last Quarter

Hourly Weather History & Observations

Time (AKST) Temp. Windchill Dew Point Humidity Pressure Visibility Wind Dir Wind Speed Gust Speed Precip Events Conditions
12:16 AM 33.8 °F 24.8 °F 26.6 °F 75% 29.95 in 10.0 mi West 12.7 mph - N/A   Partly Cloudy
12:36 AM 33.8 °F 25.3 °F 26.6 °F 75% 29.95 in 10.0 mi West 11.5 mph 16.1 mph N/A   Mostly Cloudy
12:56 AM 33.8 °F 25.3 °F 26.6 °F 75% 29.95 in 10.0 mi WNW 11.5 mph - N/A   Overcast
1:16 AM 33.8 °F 24.8 °F 24.8 °F 70% 29.94 in 10.0 mi WNW 12.7 mph - N/A   Overcast
1:36 AM 32.0 °F 24.2 °F 24.8 °F 75% 29.95 in 10.0 mi WNW 9.2 mph 17.3 mph N/A   Overcast
1:56 AM 32.0 °F 22.5 °F 24.8 °F 75% 29.94 in 10.0 mi West 12.7 mph 17.3 mph N/A   Overcast
2:16 AM 30.2 °F 19.8 °F 24.8 °F 80% 29.95 in 10.0 mi West 13.8 mph - N/A   Mostly Cloudy
2:36 AM 30.2 °F 18.9 °F 21.2 °F 69% 29.96 in 10.0 mi SW 16.1 mph - N/A   Partly Cloudy
2:56 AM 28.4 °F 15.8 °F 21.2 °F 74% 29.96 in 10.0 mi SW 18.4 mph 24.2 mph N/A   Clear
3:16 AM 26.6 °F 13.8 °F 19.4 °F 74% 29.97 in 10.0 mi SW 17.3 mph - N/A   Clear
3:36 AM 26.6 °F 15.2 °F 17.6 °F 69% 29.97 in 10.0 mi WSW 13.8 mph 21.9 mph N/A   Clear
3:56 AM 26.6 °F 17.5 °F 17.6 °F 69% 29.98 in 10.0 mi West 9.2 mph 17.3 mph N/A   Clear
4:16 AM 26.6 °F 19.1 °F 17.6 °F 69% 29.98 in 10.0 mi WNW 6.9 mph - N/A   Clear
4:36 AM 26.6 °F 18.2 °F 17.6 °F 69% 29.99 in 10.0 mi West 8.1 mph - N/A   Clear
4:56 AM 24.8 °F 15.3 °F 15.8 °F 69% 29.99 in 10.0 mi West 9.2 mph - N/A   Clear
5:16 AM 24.8 °F 14.0 °F 15.8 °F 69% 29.99 in 10.0 mi West 11.5 mph - N/A   Clear
5:36 AM 24.8 °F 14.0 °F 15.8 °F 69% 30.00 in 10.0 mi West 11.5 mph - N/A   Clear
5:56 AM 24.8 °F 14.0 °F 12.2 °F 59% 30.00 in 10.0 mi West 11.5 mph - N/A   Clear
6:16 AM 24.8 °F 16.1 °F 12.2 °F 59% 30.00 in 10.0 mi West 8.1 mph - N/A   Clear
6:36 AM 24.8 °F 15.3 °F 12.2 °F 59% 30.01 in 10.0 mi West 9.2 mph - N/A   Clear
6:56 AM 24.8 °F 16.1 °F 12.2 °F 59% 30.01 in 10.0 mi West 8.1 mph - N/A   Clear
7:16 AM 24.8 °F 14.0 °F 12.2 °F 59% 30.01 in 10.0 mi West 11.5 mph - N/A   Clear
7:36 AM 24.8 °F 14.0 °F 12.2 °F 59% 30.01 in 10.0 mi West 11.5 mph 17.3 mph N/A   Clear
7:56 AM 24.8 °F 12.9 °F 12.2 °F 59% 30.01 in 10.0 mi WSW 13.8 mph 19.6 mph N/A   Clear
8:16 AM 24.8 °F 14.0 °F 10.4 °F 54% 30.01 in 10.0 mi West 11.5 mph - N/A   Clear
8:36 AM 24.8 °F 13.4 °F 12.2 °F 59% 30.02 in 10.0 mi West 12.7 mph - N/A   Clear
8:56 AM 24.8 °F 14.0 °F 12.2 °F 59% 30.02 in 10.0 mi West 11.5 mph - N/A   Clear
9:16 AM 24.8 °F 14.6 °F 14.0 °F 64% 30.02 in 10.0 mi West 10.4 mph 20.7 mph N/A   Clear
9:36 AM 24.8 °F 12.9 °F 12.2 °F 59% 30.03 in 10.0 mi West 13.8 mph - N/A   Clear
9:56 AM 24.8 °F 12.9 °F 12.2 °F 59% 30.04 in 10.0 mi West 13.8 mph - N/A   Clear
10:16 AM 24.8 °F 12.9 °F 12.2 °F 59% 30.04 in 10.0 mi West 13.8 mph - N/A   Clear
10:36 AM 24.8 °F 11.9 °F 12.2 °F 59% 30.04 in 10.0 mi West 16.1 mph - N/A   Clear
10:56 AM 24.8 °F 13.4 °F 12.2 °F 59% 30.04 in 10.0 mi West 12.7 mph - N/A   Clear
11:16 AM 26.6 °F 13.4 °F 10.4 °F 51% 30.04 in 10.0 mi WSW 18.4 mph - N/A   Clear
11:36 AM 26.6 °F 13.4 °F 10.4 °F 51% 30.05 in 10.0 mi WSW 18.4 mph 21.9 mph N/A   Clear
11:56 AM 26.6 °F 15.7 °F 12.2 °F 55% 30.06 in 10.0 mi WSW 12.7 mph - N/A   Clear
12:16 PM 26.6 °F 15.2 °F 6.8 °F 43% 30.06 in 10.0 mi WSW 13.8 mph 20.7 mph N/A   Clear
12:36 PM 24.8 °F 13.4 °F 8.6 °F 50% 30.07 in 10.0 mi West 12.7 mph 19.6 mph N/A   Clear
12:56 PM 26.6 °F 16.8 °F 8.6 °F 47% 30.07 in 10.0 mi WSW 10.4 mph 16.1 mph N/A   Clear
1:16 PM 26.6 °F 14.7 °F 10.4 °F 51% 30.07 in 10.0 mi WSW 15.0 mph 18.4 mph N/A   Clear
1:36 PM 24.8 °F 12.4 °F 10.4 °F 54% 30.08 in 10.0 mi West 15.0 mph 21.9 mph N/A   Clear
1:56 PM 26.6 °F 14.7 °F 10.4 °F 51% 30.08 in 10.0 mi West 15.0 mph 20.7 mph N/A   Clear
2:16 PM 24.8 °F 20.5 °F 10.4 °F 54% 30.09 in 10.0 mi WNW 3.5 mph 18.4 mph N/A   Clear
2:36 PM 24.8 °F 11.5 °F 12.2 °F 59% 30.09 in 10.0 mi NNW 17.3 mph - N/A   Clear
2:56 PM 24.8 °F 11.9 °F 12.2 °F 59% 30.10 in 10.0 mi NNW 16.1 mph 23.0 mph N/A   Clear
3:16 PM 24.8 °F 11.1 °F 14.0 °F 64% 30.10 in 10.0 mi NNW 18.4 mph - N/A   Clear
3:36 PM 24.8 °F 11.5 °F 12.2 °F 59% 30.11 in 10.0 mi North 17.3 mph - N/A   Clear
3:56 PM 24.8 °F 14.0 °F 12.2 °F 59% 30.12 in 10.0 mi WNW 11.5 mph - N/A   Clear
4:16 PM 24.8 °F 17.9 °F 10.4 °F 54% 30.12 in 10.0 mi NW 5.8 mph - N/A   Clear
4:36 PM 24.8 °F 14.6 °F 12.2 °F 59% 30.12 in 10.0 mi West 10.4 mph - N/A   Clear
4:56 PM 24.8 °F 14.6 °F 10.4 °F 54% 30.13 in 10.0 mi West 10.4 mph - N/A   Clear
5:16 PM 23.0 °F 13.9 °F 10.4 °F 59% 30.14 in 10.0 mi West 8.1 mph - N/A   Clear
5:36 PM 23.0 °F 11.7 °F 12.2 °F 63% 30.14 in 10.0 mi West 11.5 mph - N/A   Clear
5:56 PM 23.0 °F 13.9 °F 10.4 °F 59% 30.15 in 10.0 mi West 8.1 mph - N/A   Clear
6:16 PM 23.0 °F 12.4 °F 12.2 °F 63% 30.16 in 10.0 mi WNW 10.4 mph - N/A   Clear
6:36 PM 21.2 °F 11.7 °F 10.4 °F 63% 30.16 in 10.0 mi West 8.1 mph - N/A   Clear
6:56 PM 21.2 °F 10.9 °F 12.2 °F 68% 30.17 in 10.0 mi West 9.2 mph 16.1 mph N/A   Clear
7:16 PM 21.2 °F 10.1 °F 10.4 °F 63% 30.17 in 10.0 mi WNW 10.4 mph - N/A   Clear
7:36 PM 21.2 °F 10.1 °F 10.4 °F 63% 30.18 in 10.0 mi WNW 10.4 mph - N/A   Clear
7:56 PM 23.0 °F 12.4 °F 10.4 °F 59% 30.18 in 10.0 mi West 10.4 mph - N/A   Clear
8:16 PM 23.0 °F 13.1 °F 10.4 °F 59% 30.18 in 10.0 mi West 9.2 mph 16.1 mph N/A   Clear
8:36 PM 23.0 °F 13.1 °F 12.2 °F 63% 30.19 in 10.0 mi West 9.2 mph - N/A   Clear
8:56 PM 23.0 °F 11.1 °F 14.0 °F 68% 30.19 in 10.0 mi West 12.7 mph - N/A   Clear
9:16 PM 23.0 °F 11.1 °F 12.2 °F 63% 30.19 in 10.0 mi West 12.7 mph 18.4 mph N/A   Clear
9:36 PM 23.0 °F 10.1 °F 14.0 °F 68% 30.19 in 10.0 mi West 15.0 mph - N/A   Clear
9:56 PM 23.0 °F 10.1 °F 14.0 °F 68% 30.19 in 10.0 mi West 15.0 mph - N/A   Clear
10:16 PM 24.8 °F 14.0 °F 10.4 °F 54% 30.20 in 10.0 mi West 11.5 mph 19.6 mph N/A   Clear
10:36 PM 23.0 °F 11.1 °F 12.2 °F 63% 30.20 in 10.0 mi West 12.7 mph 17.3 mph N/A   Clear
10:56 PM 23.0 °F 9.6 °F 12.2 °F 63% 30.21 in 10.0 mi West 16.1 mph 19.6 mph N/A   Clear
11:16 PM 23.0 °F 10.6 °F 12.2 °F 63% 30.21 in 10.0 mi West 13.8 mph 18.4 mph N/A   Clear
11:36 PM 23.0 °F 14.7 °F 10.4 °F 59% 30.22 in 10.0 mi West 6.9 mph - N/A   Clear
11:56 PM 23.0 °F 13.9 °F 10.4 °F 59% 30.23 in 10.0 mi West 8.1 mph - N/A   Clear